Time,TemperatureF,DewpointF,PressureIn,WindDirection,WindDirectionDegrees,WindSpeedMPH,WindSpeedGustMPH,Humidity,HourlyPrecipIn,Conditions,Clouds,dailyrainin,SoftwareType,DateUTC
2013-03-27 00:00:00,55.0,52.7,29.99,WNW,285,0.0,1.0,92,0.00,,---,0.00,VWS V14.01,2013-03-27 07:00:00,
2013-03-27 00:05:00,54.9,52.6,29.99,WNW,285,0.0,1.0,92,0.00,,---,0.00,VWS V14.01,2013-03-27 07:05:00,
2013-03-27 00:10:00,54.8,52.5,29.99,WNW,285,0.0,1.0,92,0.00,,---,0.00,VWS V14.01,2013-03-27 07:10:00,
2013-03-27 00:15:00,54.9,52.6,29.99,WNW,285,0.0,1.0,92,0.00,,---,0.00,VWS V14.01,2013-03-27 07:15:00,
2013-03-27 00:20:00,54.8,52.5,29.99,ESE,114,1.0,1.0,92,0.00,,---,0.00,VWS V14.01,2013-03-27 07:20:00,
2013-03-27 00:25:00,54.8,52.5,29.99,ESE,115,1.0,2.0,92,0.00,,---,0.00,VWS V14.01,2013-03-27 07:25:00,
2013-03-27 00:30:00,54.7,52.4,29.99,ESE,113,0.0,2.0,92,0.00,,---,0.00,VWS V14.01,2013-03-27 07:30:00,
2013-03-27 00:35:00,54.7,52.4,29.99,ESE,116,1.0,2.0,92,0.00,,---,0.00,VWS V14.01,2013-03-27 07:35:00,
2013-03-27 00:40:00,54.7,52.4,29.99,ESE,116,0.0,2.0,92,0.00,,---,0.00,VWS V14.01,2013-03-27 07:40:00,
2013-03-27 00:45:00,54.8,52.5,29.98,SE,136,1.0,2.0,92,0.00,,---,0.00,VWS V14.01,2013-03-27 07:45:00,
2013-03-27 00:50:00,54.8,52.5,29.98,ESE,122,0.0,2.0,92,0.00,,---,0.00,VWS V14.01,2013-03-27 07:50:00,
2013-03-27 00:55:00,55.0,52.7,29.98,ESE,108,1.0,2.0,92,0.00,,---,0.00,VWS V14.01,2013-03-27 07:55:00,
2013-03-27 01:00:00,55.0,52.7,29.98,ESE,102,0.0,2.0,92,0.00,,---,0.00,VWS V14.01,2013-03-27 08:00:00,
2013-03-27 01:05:00,55.0,52.7,29.98,ESE,102,0.0,0.0,92,0.00,,---,0.00,VWS V14.01,2013-03-27 08:05:00,
2013-03-27 01:10:00,55.1,52.8,29.98,ESE,102,0.0,0.0,92,0.00,,---,0.00,VWS V14.01,2013-03-27 08:10:00,
2013-03-27 01:15:00,55.1,52.8,29.98,ESE,102,0.0,0.0,92,0.00,,---,0.00,VWS V14.01,2013-03-27 08:15:00,
2013-03-27 01:20:00,55.0,52.7,29.97,ESE,102,0.0,0.0,92,0.00,,---,0.00,VWS V14.01,2013-03-27 08:20:00,
2013-03-27 01:25:00,55.1,52.8,29.97,ESE,102,0.0,0.0,92,0.00,,---,0.00,VWS V14.01,2013-03-27 08:25:00,
2013-03-27 01:30:00,55.1,52.8,29.97,WNW,286,0.0,1.0,92,0.00,,---,0.00,VWS V14.01,2013-03-27 08:30:00,
2013-03-27 01:35:00,55.2,52.9,29.97,SW,229,0.0,1.0,92,0.00,,---,0.00,VWS V14.01,2013-03-27 08:35:00,
2013-03-27 01:40:00,55.1,52.8,29.97,West,259,0.0,1.0,92,0.00,,---,0.00,VWS V14.01,2013-03-27 08:40:00,
2013-03-27 01:45:00,55.2,52.9,29.97,West,271,0.0,1.0,92,0.00,,---,0.00,VWS V14.01,2013-03-27 08:45:00,
2013-03-27 01:50:00,55.2,52.9,29.97,WNW,293,0.0,1.0,92,0.00,,---,0.00,VWS V14.01,2013-03-27 08:50:00,
2013-03-27 01:55:00,55.3,53.0,29.97,WNW,293,0.0,1.0,92,0.00,,---,0.00,VWS V14.01,2013-03-27 08:55:00,
2013-03-27 02:00:00,55.4,53.1,29.97,WNW,293,0.0,1.0,92,0.00,,---,0.00,VWS V14.01,2013-03-27 09:00:00,
2013-03-27 02:05:00,55.4,53.1,29.97,WNW,293,0.0,0.0,92,0.00,,---,0.00,VWS V14.01,2013-03-27 09:05:00,
2013-03-27 02:10:00,55.5,52.9,29.97,WNW,293,0.0,1.0,91,0.00,,---,0.00,VWS V14.01,2013-03-27 09:10:00,
2013-03-27 02:15:00,55.4,52.8,29.97,WNW,293,0.0,1.0,91,0.00,,---,0.00,VWS V14.01,2013-03-27 09:15:00,
2013-03-27 02:20:00,55.4,52.8,29.97,WNW,293,0.0,1.0,91,0.00,,---,0.00,VWS V14.01,2013-03-27 09:20:00,
2013-03-27 02:25:00,55.4,52.8,29.96,WNW,293,0.0,1.0,91,0.00,,---,0.00,VWS V14.01,2013-03-27 09:25:00,
2013-03-27 02:30:00,55.5,52.9,29.96,WNW,293,0.0,1.0,91,0.00,,---,0.00,VWS V14.01,2013-03-27 09:30:00,
2013-03-27 02:35:00,55.5,52.9,29.96,WNW,293,0.0,1.0,91,0.00,,---,0.00,VWS V14.01,2013-03-27 09:35:00,
2013-03-27 02:40:00,55.4,52.8,29.96,SSE,158,0.0,1.0,91,0.00,,---,0.00,VWS V14.01,2013-03-27 09:40:00,
2013-03-27 02:45:00,55.5,52.9,29.96,SSE,158,0.0,1.0,91,0.00,,---,0.00,VWS V14.01,2013-03-27 09:45:00,
2013-03-27 02:50:00,55.5,52.9,29.96,SSE,158,0.0,1.0,91,0.00,,---,0.00,VWS V14.01,2013-03-27 09:50:00,
2013-03-27 02:55:00,55.6,53.0,29.95,SSE,162,2.0,2.0,91,0.00,,---,0.00,VWS V14.01,2013-03-27 09:55:00,
2013-03-27 03:00:00,55.6,53.0,29.95,SSW,207,2.0,3.0,91,0.00,,---,0.00,VWS V14.01,2013-03-27 10:00:00,
2013-03-27 03:05:00,55.7,52.8,29.95,SSW,204,2.0,4.0,90,0.00,,---,0.00,VWS V14.01,2013-03-27 10:05:00,
2013-03-27 03:10:00,55.7,52.8,29.95,SW,225,4.0,6.0,90,0.00,,---,0.00,VWS V14.01,2013-03-27 10:10:00,
2013-03-27 03:15:00,55.8,52.6,29.95,SW,221,4.0,6.0,89,0.00,,---,0.00,VWS V14.01,2013-03-27 10:15:00,
2013-03-27 03:20:00,55.9,52.7,29.95,SSE,163,2.0,6.0,89,0.00,,---,0.00,VWS V14.01,2013-03-27 10:20:00,
2013-03-27 03:25:00,55.8,52.6,29.95,South,191,1.0,8.0,89,0.00,,---,0.00,VWS V14.01,2013-03-27 10:25:00,
2013-03-27 03:30:00,55.7,52.5,29.95,East,98,0.0,8.0,89,0.00,,---,0.00,VWS V14.01,2013-03-27 10:30:00,
2013-03-27 03:35:00,55.7,52.5,29.95,SE,136,1.0,8.0,89,0.00,,---,0.00,VWS V14.01,2013-03-27 10:35:00,
2013-03-27 03:40:00,55.8,52.6,29.95,SE,143,1.0,8.0,89,0.00,,---,0.00,VWS V14.01,2013-03-27 10:40:00,
2013-03-27 03:45:00,55.8,52.6,29.95,SSW,210,3.0,8.0,89,0.00,,---,0.00,VWS V14.01,2013-03-27 10:45:00,
2013-03-27 03:50:00,55.7,52.5,29.95,SW,214,2.0,8.0,89,0.00,,---,0.00,VWS V14.01,2013-03-27 10:50:00,
2013-03-27 03:55:00,55.7,52.5,29.95,SW,236,2.0,8.0,89,0.00,,---,0.00,VWS V14.01,2013-03-27 10:55:00,
2013-03-27 04:00:00,55.6,52.4,29.95,SSW,199,2.0,8.0,89,0.00,,---,0.00,VWS V14.01,2013-03-27 11:00:00,
2013-03-27 04:05:00,55.6,52.4,29.95,SSE,153,4.0,5.0,89,0.00,,---,0.00,VWS V14.01,2013-03-27 11:05:00,
2013-03-27 04:10:00,55.5,52.0,29.95,SSE,167,1.0,5.0,88,0.00,,---,0.00,VWS V14.01,2013-03-27 11:10:00,
2013-03-27 04:15:00,55.4,51.9,29.95,SSE,160,1.0,5.0,88,0.00,,---,0.00,VWS V14.01,2013-03-27 11:15:00,
2013-03-27 04:20:00,55.4,51.9,29.95,South,186,0.0,5.0,88,0.00,,---,0.00,VWS V14.01,2013-03-27 11:20:00,
2013-03-27 04:25:00,55.3,51.8,29.95,SSE,162,0.0,5.0,88,0.00,,---,0.00,VWS V14.01,2013-03-27 11:25:00,
2013-03-27 04:30:00,55.3,51.5,29.95,SW,228,0.0,5.0,87,0.00,,---,0.00,VWS V14.01,2013-03-27 11:30:00,
2013-03-27 04:35:00,55.3,51.5,29.95,SE,139,0.0,5.0,87,0.00,,---,0.00,VWS V14.01,2013-03-27 11:35:00,
2013-03-27 04:40:00,55.3,51.8,29.95,South,180,3.0,5.0,88,0.00,,---,0.00,VWS V14.01,2013-03-27 11:40:00,
2013-03-27 04:45:00,55.2,51.4,29.96,SW,232,1.0,5.0,87,0.00,,---,0.00,VWS V14.01,2013-03-27 11:45:00,
2013-03-27 04:50:00,55.2,51.4,29.96,SSE,156,0.0,5.0,87,0.00,,---,0.00,VWS V14.01,2013-03-27 11:50:00,
2013-03-27 04:55:00,55.2,51.7,29.96,SSE,148,2.0,5.0,88,0.00,,---,0.00,VWS V14.01,2013-03-27 11:55:00,
2013-03-27 05:00:00,55.1,51.3,29.96,SSE,165,3.0,5.0,87,0.00,,---,0.00,VWS V14.01,2013-03-27 12:00:00,
2013-03-27 05:05:00,55.0,51.5,29.96,SW,224,3.0,5.0,88,0.00,,---,0.00,VWS V14.01,2013-03-27 12:05:00,
2013-03-27 05:10:00,55.0,51.5,29.96,SSE,160,4.0,5.0,88,0.00,,---,0.00,VWS V14.01,2013-03-27 12:10:00,
2013-03-27 05:15:00,55.0,51.5,29.96,SSE,155,2.0,5.0,88,0.00,,---,0.00,VWS V14.01,2013-03-27 12:15:00,
2013-03-27 05:20:00,54.9,51.4,29.96,SSE,158,0.0,5.0,88,0.00,,---,0.00,VWS V14.01,2013-03-27 12:20:00,
2013-03-27 05:25:00,55.0,51.5,29.96,SSE,152,0.0,5.0,88,0.00,,---,0.00,VWS V14.01,2013-03-27 12:25:00,
2013-03-27 05:30:00,54.9,51.4,29.96,SSW,195,0.0,5.0,88,0.00,,---,0.00,VWS V14.01,2013-03-27 12:30:00,
2013-03-27 05:35:00,54.9,51.4,29.96,SW,228,1.0,5.0,88,0.00,,---,0.00,VWS V14.01,2013-03-27 12:35:00,
2013-03-27 05:40:00,54.9,51.4,29.97,SSE,160,0.0,5.0,88,0.00,,---,0.00,VWS V14.01,2013-03-27 12:40:00,
2013-03-27 05:45:00,54.9,51.4,29.97,South,176,2.0,5.0,88,0.00,,---,0.00,VWS V14.01,2013-03-27 12:45:00,
2013-03-27 05:50:00,54.8,51.3,29.97,SE,131,0.0,5.0,88,0.00,,---,0.00,VWS V14.01,2013-03-27 12:50:00,
2013-03-27 05:55:00,54.9,51.4,29.97,SE,139,0.0,5.0,88,0.00,,---,0.00,VWS V14.01,2013-03-27 12:55:00,
2013-03-27 06:00:00,54.8,51.3,29.97,South,177,2.0,5.0,88,0.00,,---,0.00,VWS V14.01,2013-03-27 13:00:00,
2013-03-27 06:05:00,54.8,51.3,29.97,SW,224,2.0,2.0,88,0.00,,---,0.00,VWS V14.01,2013-03-27 13:05:00,
2013-03-27 06:10:00,54.8,51.3,29.97,SW,229,0.0,2.0,88,0.00,,---,0.00,VWS V14.01,2013-03-27 13:10:00,
2013-03-27 06:15:00,54.9,51.1,29.98,SSW,210,1.0,2.0,87,0.00,,---,0.00,VWS V14.01,2013-03-27 13:15:00,
2013-03-27 06:20:00,54.9,51.1,29.98,SW,219,0.0,4.0,87,0.00,,---,0.00,VWS V14.01,2013-03-27 13:20:00,
2013-03-27 06:25:00,54.8,51.0,29.98,SSE,163,0.0,4.0,87,0.00,,---,0.00,VWS V14.01,2013-03-27 13:25:00,
2013-03-27 06:30:00,54.9,51.1,29.98,SSE,160,1.0,4.0,87,0.00,,---,0.00,VWS V14.01,2013-03-27 13:30:00,
2013-03-27 06:35:00,54.9,51.1,29.99,SSE,167,0.0,4.0,87,0.00,,---,0.00,VWS V14.01,2013-03-27 13:35:00,
2013-03-27 06:40:00,54.9,51.1,29.99,SE,130,1.0,4.0,87,0.00,,---,0.00,VWS V14.01,2013-03-27 13:40:00,
2013-03-27 06:45:00,54.9,51.1,29.99,ESE,113,2.0,5.0,87,0.00,,---,0.00,VWS V14.01,2013-03-27 13:45:00,
2013-03-27 06:50:00,54.8,51.0,29.99,SE,135,1.0,5.0,87,0.00,,---,0.00,VWS V14.01,2013-03-27 13:50:00,
2013-03-27 06:55:00,54.9,51.1,29.99,SE,137,1.0,5.0,87,0.00,,---,0.00,VWS V14.01,2013-03-27 13:55:00,
2013-03-27 07:00:00,54.9,51.1,29.99,ESE,121,2.0,5.0,87,0.00,,---,0.00,VWS V14.01,2013-03-27 14:00:00,
2013-03-27 07:05:00,54.9,50.8,29.99,SE,143,2.0,4.0,86,0.00,,---,0.00,VWS V14.01,2013-03-27 14:05:00,
2013-03-27 07:10:00,54.9,50.8,29.99,SE,131,4.0,5.0,86,0.00,,---,0.00,VWS V14.01,2013-03-27 14:10:00,
2013-03-27 07:15:00,54.9,50.8,29.99,SW,228,0.0,6.0,86,0.00,,---,0.00,VWS V14.01,2013-03-27 14:15:00,
2013-03-27 07:20:00,55.0,50.9,30.00,WSW,250,0.0,6.0,86,0.00,,---,0.00,VWS V14.01,2013-03-27 14:20:00,
2013-03-27 07:25:00,55.1,51.0,30.00,SSE,150,1.0,6.0,86,0.00,,---,0.00,VWS V14.01,2013-03-27 14:25:00,
2013-03-27 07:30:00,55.1,51.0,30.00,SW,218,2.0,6.0,86,0.00,,---,0.00,VWS V14.01,2013-03-27 14:30:00,
2013-03-27 07:35:00,55.3,51.2,30.00,SSE,151,1.0,6.0,86,0.00,,---,0.00,VWS V14.01,2013-03-27 14:35:00,
2013-03-27 07:40:00,55.4,51.3,30.00,SSE,165,2.0,6.0,86,0.00,,---,0.00,VWS V14.01,2013-03-27 14:40:00,
2013-03-27 07:45:00,55.4,51.0,30.00,SE,125,4.0,6.0,85,0.00,,---,0.00,VWS V14.01,2013-03-27 14:45:00,
2013-03-27 07:50:00,55.5,51.1,30.01,SE,142,2.0,6.0,85,0.00,,---,0.00,VWS V14.01,2013-03-27 14:50:00,
2013-03-27 07:55:00,55.6,51.2,30.01,SW,221,3.0,6.0,85,0.00,,---,0.00,VWS V14.01,2013-03-27 14:55:00,
2013-03-27 08:00:00,55.7,51.3,30.01,SE,142,1.0,6.0,85,0.00,,---,0.00,VWS V14.01,2013-03-27 15:00:00,
2013-03-27 08:05:00,55.9,51.5,30.01,SE,135,2.0,4.0,85,0.00,,---,0.00,VWS V14.01,2013-03-27 15:05:00,
2013-03-27 08:10:00,55.9,51.1,30.01,SSE,156,2.0,5.0,84,0.00,,---,0.00,VWS V14.01,2013-03-27 15:10:00,
2013-03-27 08:15:00,56.0,51.2,30.01,SE,132,1.0,5.0,84,0.00,,---,0.00,VWS V14.01,2013-03-27 15:15:00,
2013-03-27 08:20:00,56.1,51.0,30.01,SSE,148,2.0,5.0,83,0.00,,---,0.00,VWS V14.01,2013-03-27 15:20:00,
2013-03-27 08:25:00,56.2,51.4,30.01,SE,138,1.0,5.0,84,0.00,,---,0.00,VWS V14.01,2013-03-27 15:25:00,
2013-03-27 08:30:00,56.3,51.2,30.01,SSE,155,1.0,5.0,83,0.00,,---,0.00,VWS V14.01,2013-03-27 15:30:00,
2013-03-27 08:35:00,56.5,51.4,30.01,SSE,165,3.0,7.0,83,0.00,,---,0.00,VWS V14.01,2013-03-27 15:35:00,
2013-03-27 08:40:00,56.7,51.9,30.01,SE,143,6.0,7.0,84,0.00,,---,0.00,VWS V14.01,2013-03-27 15:40:00,
2013-03-27 08:45:00,56.8,51.4,30.01,South,190,4.0,7.0,82,0.00,,---,0.00,VWS V14.01,2013-03-27 15:45:00,
2013-03-27 08:50:00,57.0,51.6,30.01,SSE,155,3.0,7.0,82,0.00,,---,0.00,VWS V14.01,2013-03-27 15:50:00,
2013-03-27 08:54:00,57.3,51.5,30.01,SSE,153,1.0,7.0,81,0.00,,---,0.00,VWS V14.01,2013-03-27 15:54:00,
2013-03-27 09:00:00,57.5,51.7,30.01,SE,145,3.0,7.0,81,0.00,,---,0.00,VWS V14.01,2013-03-27 16:00:00,
2013-03-27 09:05:00,57.9,51.8,30.01,ESE,114,2.0,4.0,80,0.00,,---,0.00,VWS V14.01,2013-03-27 16:05:00,
2013-03-27 09:10:00,58.5,52.4,30.01,SE,145,1.0,4.0,80,0.00,,---,0.00,VWS V14.01,2013-03-27 16:10:00,
2013-03-27 09:15:00,58.3,51.5,30.02,SW,235,2.0,5.0,78,0.00,,---,0.00,VWS V14.01,2013-03-27 16:15:00,
2013-03-27 09:20:00,58.1,51.6,30.02,SW,214,0.0,5.0,79,0.00,,---,0.00,VWS V14.01,2013-03-27 16:20:00,
2013-03-27 09:25:00,58.3,51.5,30.02,West,281,2.0,5.0,78,0.00,,---,0.00,VWS V14.01,2013-03-27 16:25:00,
2013-03-27 09:30:00,58.3,51.5,30.02,West,281,0.0,5.0,78,0.00,,---,0.00,VWS V14.01,2013-03-27 16:30:00,
2013-03-27 09:35:00,58.3,51.8,30.02,ESE,122,3.0,6.0,79,0.00,,---,0.00,VWS V14.01,2013-03-27 16:35:00,
2013-03-27 09:40:00,58.5,52.0,30.02,ESE,106,0.0,6.0,79,0.00,,---,0.00,VWS V14.01,2013-03-27 16:40:00,
2013-03-27 09:45:00,58.6,51.8,30.02,South,188,3.0,6.0,78,0.00,,---,0.00,VWS V14.01,2013-03-27 16:45:00,
2013-03-27 09:50:00,58.4,51.6,30.02,SSW,208,0.0,6.0,78,0.00,,---,0.00,VWS V14.01,2013-03-27 16:50:00,
2013-03-27 09:54:00,58.3,51.5,30.02,South,176,3.0,7.0,78,0.00,,---,0.00,VWS V14.01,2013-03-27 16:54:00,
2013-03-27 09:59:00,58.5,51.7,30.02,WSW,249,1.0,7.0,78,0.00,,---,0.00,VWS V14.01,2013-03-27 16:59:00,
2013-03-27 10:04:00,58.6,51.8,30.02,SSE,155,2.0,7.0,78,0.00,,---,0.00,VWS V14.01,2013-03-27 17:04:00,
2013-03-27 10:09:00,58.9,52.1,30.02,SSW,211,3.0,9.0,78,0.00,,---,0.00,VWS V14.01,2013-03-27 17:09:00,
2013-03-27 10:14:00,59.1,51.9,30.02,South,170,3.0,9.0,77,0.00,,---,0.00,VWS V14.01,2013-03-27 17:14:00,
2013-03-27 10:19:00,59.2,51.7,30.03,SW,222,2.0,9.0,76,0.00,,---,0.00,VWS V14.01,2013-03-27 17:19:00,
2013-03-27 10:24:00,59.1,51.5,30.03,WNW,294,2.0,9.0,76,0.00,,---,0.00,VWS V14.01,2013-03-27 17:24:00,
2013-03-27 10:29:00,59.7,52.1,30.03,WSW,253,3.0,9.0,76,0.00,,---,0.00,VWS V14.01,2013-03-27 17:29:00,
2013-03-27 10:34:00,60.9,52.6,30.03,SW,214,4.0,9.0,74,0.00,,---,0.00,VWS V14.01,2013-03-27 17:34:00,
2013-03-27 10:39:00,61.2,52.9,30.03,South,169,1.0,9.0,74,0.00,,---,0.00,VWS V14.01,2013-03-27 17:39:00,
2013-03-27 10:44:00,61.3,53.0,30.03,WSW,252,2.0,9.0,74,0.00,,---,0.00,VWS V14.01,2013-03-27 17:44:00,
2013-03-27 10:49:00,61.6,52.9,30.03,West,266,5.0,9.0,73,0.00,,---,0.00,VWS V14.01,2013-03-27 17:49:00,
2013-03-27 10:54:00,61.3,52.2,30.03,SSE,166,0.0,10.0,72,0.00,,---,0.00,VWS V14.01,2013-03-27 17:54:00,
2013-03-27 10:59:00,61.5,52.8,30.03,West,273,2.0,10.0,73,0.00,,---,0.00,VWS V14.01,2013-03-27 17:59:00,
2013-03-27 11:04:00,61.5,52.8,30.03,WNW,292,0.0,6.0,73,0.00,,---,0.00,VWS V14.01,2013-03-27 18:04:00,
2013-03-27 11:09:00,61.8,53.1,30.03,SSW,201,4.0,8.0,73,0.00,,---,0.00,VWS V14.01,2013-03-27 18:09:00,
2013-03-27 11:14:00,61.6,52.9,30.03,SW,231,5.0,8.0,73,0.00,,---,0.00,VWS V14.01,2013-03-27 18:14:00,
2013-03-27 11:19:00,60.7,52.7,30.04,SE,124,0.0,9.0,75,0.00,,---,0.00,VWS V14.01,2013-03-27 18:19:00,
2013-03-27 11:24:00,61.3,53.3,30.03,West,264,3.0,9.0,75,0.00,,---,0.00,VWS V14.01,2013-03-27 18:24:00,
2013-03-27 11:29:00,62.1,53.3,30.03,West,266,1.0,9.0,73,0.00,,---,0.00,VWS V14.01,2013-03-27 18:29:00,
2013-03-27 11:34:00,62.2,53.8,30.03,SSE,148,2.0,9.0,74,0.00,,---,0.00,VWS V14.01,2013-03-27 18:34:00,
2013-03-27 11:39:00,63.5,53.2,30.03,West,278,6.0,9.0,69,0.00,,---,0.00,VWS V14.01,2013-03-27 18:39:00,
2013-03-27 11:44:00,62.3,53.5,30.03,SSW,197,3.0,9.0,73,0.00,,---,0.00,VWS V14.01,2013-03-27 18:44:00,
2013-03-27 11:49:00,63.0,53.8,30.03,SSW,197,7.0,9.0,72,0.00,,---,0.00,VWS V14.01,2013-03-27 18:49:00,
2013-03-27 11:54:00,62.9,53.0,30.03,WNW,291,2.0,9.0,70,0.00,,---,0.00,VWS V14.01,2013-03-27 18:54:00,
2013-03-27 11:59:00,62.7,53.2,30.03,NW,317,2.0,9.0,71,0.00,,---,0.00,VWS V14.01,2013-03-27 18:59:00,
2013-03-27 12:04:00,62.8,52.5,30.03,WNW,303,3.0,8.0,69,0.00,,---,0.00,VWS V14.01,2013-03-27 19:04:00,
2013-03-27 12:09:00,62.2,52.7,30.03,West,277,1.0,8.0,71,0.00,,---,0.00,VWS V14.01,2013-03-27 19:09:00,
2013-03-27 12:14:00,62.9,53.4,30.02,SW,225,4.0,10.0,71,0.00,,---,0.00,VWS V14.01,2013-03-27 19:14:00,
2013-03-27 12:19:00,64.1,53.7,30.02,SSW,212,2.0,10.0,69,0.00,,---,0.00,VWS V14.01,2013-03-27 19:19:00,
2013-03-27 12:24:00,64.5,53.7,30.02,SSW,210,2.0,10.0,68,0.00,,---,0.00,VWS V14.01,2013-03-27 19:24:00,
2013-03-27 12:29:00,64.4,54.0,30.02,West,278,4.0,10.0,69,0.00,,---,0.00,VWS V14.01,2013-03-27 19:29:00,
2013-03-27 12:34:00,64.8,54.4,30.02,West,271,3.0,10.0,69,0.00,,---,0.00,VWS V14.01,2013-03-27 19:34:00,
2013-03-27 12:39:00,64.1,53.3,30.02,SW,233,5.0,10.0,68,0.00,,---,0.00,VWS V14.01,2013-03-27 19:39:00,
2013-03-27 12:44:00,63.2,53.3,30.02,WNW,287,6.0,10.0,70,0.00,,---,0.00,VWS V14.01,2013-03-27 19:44:00,
2013-03-27 12:49:00,62.6,53.5,30.02,WSW,253,10.0,10.0,72,0.00,,---,0.00,VWS V14.01,2013-03-27 19:49:00,
2013-03-27 12:54:00,62.4,52.9,30.02,West,271,6.0,11.0,71,0.00,,---,0.00,VWS V14.01,2013-03-27 19:54:00,
2013-03-27 12:59:00,62.1,53.0,30.02,WSW,249,4.0,11.0,72,0.00,,---,0.00,VWS V14.01,2013-03-27 19:59:00,
2013-03-27 13:04:00,62.1,53.0,30.02,NW,317,4.0,9.0,72,0.00,,---,0.00,VWS V14.01,2013-03-27 20:04:00,
2013-03-27 13:09:00,63.4,53.5,30.01,West,273,6.0,9.0,70,0.00,,---,0.00,VWS V14.01,2013-03-27 20:09:00,
2013-03-27 13:14:00,63.9,53.5,30.01,West,270,10.0,10.0,69,0.00,,---,0.00,VWS V14.01,2013-03-27 20:14:00,
2013-03-27 13:19:00,63.2,53.3,30.01,NW,318,5.0,10.0,70,0.00,,---,0.00,VWS V14.01,2013-03-27 20:19:00,
2013-03-27 13:24:00,63.3,53.8,30.01,West,264,7.0,11.0,71,0.00,,---,0.00,VWS V14.01,2013-03-27 20:24:00,
2013-03-27 13:29:00,63.0,53.1,30.02,WNW,283,10.0,11.0,70,0.00,,---,0.00,VWS V14.01,2013-03-27 20:29:00,
2013-03-27 13:34:00,63.0,53.1,30.02,NW,315,4.0,11.0,70,0.00,,---,0.00,VWS V14.01,2013-03-27 20:34:00,
2013-03-27 13:39:00,62.5,53.0,30.02,WNW,297,9.0,11.0,71,0.00,,---,0.00,VWS V14.01,2013-03-27 20:39:00,
2013-03-27 13:44:00,61.8,52.7,30.01,WNW,299,6.0,13.0,72,0.00,,---,0.00,VWS V14.01,2013-03-27 20:44:00,
2013-03-27 13:49:00,62.6,52.7,30.01,WNW,283,10.0,13.0,70,0.00,,---,0.00,VWS V14.01,2013-03-27 20:49:00,
2013-03-27 13:54:00,62.6,52.7,30.01,WNW,290,3.0,13.0,70,0.00,,---,0.00,VWS V14.01,2013-03-27 20:54:00,
2013-03-27 13:59:00,63.7,53.0,30.01,West,271,3.0,13.0,68,0.00,,---,0.00,VWS V14.01,2013-03-27 20:59:00,
2013-03-27 14:04:00,63.3,53.0,30.01,WNW,283,3.0,10.0,69,0.00,,---,0.00,VWS V14.01,2013-03-27 21:04:00,
2013-03-27 14:09:00,63.4,53.1,30.01,NW,304,4.0,10.0,69,0.00,,---,0.00,VWS V14.01,2013-03-27 21:09:00,
2013-03-27 14:14:00,62.6,52.7,30.01,NW,314,3.0,13.0,70,0.00,,---,0.00,VWS V14.01,2013-03-27 21:14:00,
2013-03-27 14:19:00,63.0,52.7,30.01,WNW,302,5.0,13.0,69,0.00,,---,0.00,VWS V14.01,2013-03-27 21:19:00,
2013-03-27 14:24:00,62.5,53.0,30.01,WNW,294,7.0,13.0,71,0.00,,---,0.00,VWS V14.01,2013-03-27 21:24:00,
2013-03-27 14:29:00,62.2,52.7,30.01,NW,304,10.0,13.0,71,0.00,,---,0.00,VWS V14.01,2013-03-27 21:29:00,
2013-03-27 14:34:00,62.0,52.5,30.01,West,264,4.0,13.0,71,0.00,,---,0.00,VWS V14.01,2013-03-27 21:34:00,
2013-03-27 14:39:00,62.1,52.6,30.01,WNW,300,6.0,13.0,71,0.00,,---,0.00,VWS V14.01,2013-03-27 21:39:00,
2013-03-27 14:44:00,62.4,52.5,30.01,WNW,284,3.0,13.0,70,0.00,,---,0.00,VWS V14.01,2013-03-27 21:44:00,
2013-03-27 14:49:00,62.2,53.1,30.01,WSW,248,3.0,13.0,72,0.00,,---,0.00,VWS V14.01,2013-03-27 21:49:00,
2013-03-27 14:54:00,62.4,52.9,30.01,NW,307,5.0,13.0,71,0.00,,---,0.00,VWS V14.01,2013-03-27 21:54:00,
2013-03-27 14:59:00,62.8,53.3,30.00,NW,319,5.0,13.0,71,0.00,,---,0.00,VWS V14.01,2013-03-27 21:59:00,
2013-03-27 15:04:00,62.5,53.0,30.00,WNW,290,7.0,10.0,71,0.00,,---,0.00,VWS V14.01,2013-03-27 22:04:00,
2013-03-27 15:09:00,62.4,53.3,30.00,NW,312,3.0,11.0,72,0.00,,---,0.00,VWS V14.01,2013-03-27 22:09:00,
2013-03-27 15:14:00,62.3,53.2,30.00,NW,321,7.0,11.0,72,0.00,,---,0.00,VWS V14.01,2013-03-27 22:14:00,
2013-03-27 15:19:00,62.2,53.1,30.00,NW,321,3.0,11.0,72,0.00,,---,0.00,VWS V14.01,2013-03-27 22:19:00,
2013-03-27 15:24:00,62.1,53.0,30.00,WNW,302,9.0,11.0,72,0.00,,---,0.00,VWS V14.01,2013-03-27 22:24:00,
2013-03-27 15:29:00,62.0,52.9,30.00,NW,307,8.0,11.0,72,0.00,,---,0.00,VWS V14.01,2013-03-27 22:29:00,
2013-03-27 15:34:00,61.8,53.1,30.00,NW,316,7.0,12.0,73,0.00,,---,0.00,VWS V14.01,2013-03-27 22:34:00,
2013-03-27 15:39:00,61.4,53.0,30.00,NW,306,3.0,12.0,74,0.00,,---,0.00,VWS V14.01,2013-03-27 22:39:00,
2013-03-27 15:44:00,61.6,53.2,30.00,NW,305,9.0,12.0,74,0.00,,---,0.00,VWS V14.01,2013-03-27 22:44:00,
2013-03-27 15:49:00,61.4,53.4,30.00,WNW,287,9.0,12.0,75,0.00,,---,0.00,VWS V14.01,2013-03-27 22:49:00,
2013-03-27 15:54:00,61.2,53.2,30.00,NW,321,9.0,12.0,75,0.00,,---,0.00,VWS V14.01,2013-03-27 22:54:00,
2013-03-27 15:59:00,61.3,53.3,30.00,WNW,301,8.0,12.0,75,0.00,,---,0.00,VWS V14.01,2013-03-27 22:59:00,
2013-03-27 16:04:00,61.3,53.0,30.00,West,267,7.0,10.0,74,0.00,,---,0.00,VWS V14.01,2013-03-27 23:04:00,
2013-03-27 16:09:00,61.2,53.2,30.00,NW,310,3.0,10.0,75,0.00,,---,0.00,VWS V14.01,2013-03-27 23:09:00,
2013-03-27 16:14:00,61.7,53.3,29.99,WNW,288,6.0,10.0,74,0.00,,---,0.00,VWS V14.01,2013-03-27 23:14:00,
2013-03-27 16:19:00,61.6,53.2,29.99,West,278,5.0,10.0,74,0.00,,---,0.00,VWS V14.01,2013-03-27 23:19:00,
2013-03-27 16:24:00,61.5,53.2,29.99,NW,311,6.0,11.0,74,0.00,,---,0.00,VWS V14.01,2013-03-27 23:24:00,
2013-03-27 16:29:00,61.4,53.4,29.99,WNW,294,5.0,11.0,75,0.00,,---,0.00,VWS V14.01,2013-03-27 23:29:00,
2013-03-27 16:34:00,61.3,53.3,29.99,WNW,294,6.0,11.0,75,0.00,,---,0.00,VWS V14.01,2013-03-27 23:34:00,
2013-03-27 16:39:00,61.2,53.6,30.00,SW,226,3.0,11.0,76,0.00,,---,0.00,VWS V14.01,2013-03-27 23:39:00,
2013-03-27 16:44:00,61.1,53.5,30.00,WNW,297,4.0,11.0,76,0.00,,---,0.00,VWS V14.01,2013-03-27 23:44:00,
2013-03-27 16:49:00,61.1,53.8,30.00,WNW,300,7.0,11.0,77,0.00,,---,0.00,VWS V14.01,2013-03-27 23:49:00,
2013-03-27 16:54:00,61.1,53.5,30.00,WNW,292,7.0,11.0,76,0.00,,---,0.00,VWS V14.01,2013-03-27 23:54:00,
2013-03-27 16:59:00,60.6,53.7,30.00,WNW,302,5.0,11.0,78,0.00,,---,0.00,VWS V14.01,2013-03-27 23:59:00,
2013-03-27 17:04:00,60.3,53.4,30.00,NW,319,5.0,10.0,78,0.00,,---,0.00,VWS V14.01,2013-03-28 00:04:00,
2013-03-27 17:09:00,59.9,53.7,30.00,SW,234,4.0,10.0,80,0.00,,---,0.00,VWS V14.01,2013-03-28 00:09:00,
2013-03-27 17:14:00,59.9,53.4,30.00,West,276,8.0,10.0,79,0.00,,---,0.00,VWS V14.01,2013-03-28 00:14:00,
2013-03-27 17:19:00,59.9,53.7,30.00,WNW,294,5.0,10.0,80,0.00,,---,0.00,VWS V14.01,2013-03-28 00:19:00,
2013-03-27 17:24:00,60.0,53.5,30.01,WNW,285,3.0,10.0,79,0.00,,---,0.00,VWS V14.01,2013-03-28 00:24:00,
2013-03-27 17:29:00,59.9,53.7,30.01,West,263,5.0,10.0,80,0.00,,---,0.00,VWS V14.01,2013-03-28 00:29:00,
2013-03-27 17:34:00,59.7,53.5,30.01,WNW,291,5.0,10.0,80,0.00,,---,0.00,VWS V14.01,2013-03-28 00:34:00,
2013-03-27 17:39:00,59.5,53.3,30.01,WNW,303,4.0,10.0,80,0.00,,---,0.00,VWS V14.01,2013-03-28 00:39:00,
2013-03-27 17:44:00,59.4,53.6,30.01,NW,325,3.0,10.0,81,0.00,,---,0.00,VWS V14.01,2013-03-28 00:44:00,
2013-03-27 17:49:00,59.1,53.3,30.01,WNW,288,6.0,10.0,81,0.00,,---,0.00,VWS V14.01,2013-03-28 00:49:00,
2013-03-27 17:54:00,59.1,53.3,30.01,WNW,293,3.0,10.0,81,0.00,,---,0.00,VWS V14.01,2013-03-28 00:54:00,
2013-03-27 17:59:00,59.2,53.0,30.01,West,259,5.0,10.0,80,0.00,,---,0.00,VWS V14.01,2013-03-28 00:59:00,
2013-03-27 18:04:00,58.8,53.3,30.01,WSW,245,2.0,6.0,82,0.00,,---,0.00,VWS V14.01,2013-03-28 01:04:00,
2013-03-27 18:09:00,58.7,53.2,30.01,West,281,1.0,6.0,82,0.00,,---,0.00,VWS V14.01,2013-03-28 01:09:00,
2013-03-27 18:14:00,58.5,53.4,30.01,SW,229,3.0,6.0,83,0.00,,---,0.00,VWS V14.01,2013-03-28 01:14:00,
2013-03-27 18:19:00,58.3,53.2,30.01,West,262,3.0,6.0,83,0.00,,---,0.00,VWS V14.01,2013-03-28 01:19:00,
2013-03-27 18:24:00,57.9,53.1,30.01,NW,314,3.0,6.0,84,0.00,,---,0.00,VWS V14.01,2013-03-28 01:24:00,
2013-03-27 18:29:00,57.6,52.8,30.01,West,264,3.0,6.0,84,0.00,,---,0.00,VWS V14.01,2013-03-28 01:29:00,
2013-03-27 18:34:00,57.3,52.8,30.02,WNW,297,3.0,6.0,85,0.00,,---,0.00,VWS V14.01,2013-03-28 01:34:00,
2013-03-27 18:39:00,57.1,53.0,30.02,WNW,284,1.0,6.0,86,0.00,,---,0.00,VWS V14.01,2013-03-28 01:39:00,
2013-03-27 18:44:00,57.0,52.9,30.02,West,281,2.0,6.0,86,0.00,,---,0.00,VWS V14.01,2013-03-28 01:44:00,
2013-03-27 18:49:00,56.6,52.5,30.02,West,276,1.0,6.0,86,0.00,,---,0.00,VWS V14.01,2013-03-28 01:49:00,
2013-03-27 18:54:00,56.6,52.8,30.02,WNW,291,1.0,6.0,87,0.00,,---,0.00,VWS V14.01,2013-03-28 01:54:00,
2013-03-27 18:59:00,56.4,52.6,30.02,WSW,250,3.0,6.0,87,0.00,,---,0.00,VWS V14.01,2013-03-28 01:59:00,
2013-03-27 19:04:00,56.2,52.7,30.02,NW,314,4.0,5.0,88,0.00,,---,0.00,VWS V14.01,2013-03-28 02:04:00,
2013-03-27 19:09:00,56.1,52.6,30.02,WSW,257,3.0,6.0,88,0.00,,---,0.00,VWS V14.01,2013-03-28 02:09:00,
2013-03-27 19:14:00,56.0,52.5,30.02,WNW,296,2.0,6.0,88,0.00,,---,0.00,VWS V14.01,2013-03-28 02:14:00,
2013-03-27 19:19:00,55.9,52.4,30.02,WNW,296,2.0,6.0,88,0.00,,---,0.00,VWS V14.01,2013-03-28 02:19:00,
2013-03-27 19:24:00,55.8,52.6,30.02,WNW,296,2.0,6.0,89,0.00,,---,0.00,VWS V14.01,2013-03-28 02:24:00,
2013-03-27 19:29:00,55.7,52.5,30.02,WNW,300,4.0,6.0,89,0.00,,---,0.00,VWS V14.01,2013-03-28 02:29:00,
2013-03-27 19:34:00,55.5,52.3,30.02,NW,318,3.0,6.0,89,0.00,,---,0.00,VWS V14.01,2013-03-28 02:34:00,
2013-03-27 19:39:00,55.4,52.5,30.02,WNW,282,3.0,6.0,90,0.00,,---,0.00,VWS V14.01,2013-03-28 02:39:00,
2013-03-27 19:44:00,55.4,52.5,30.02,West,278,2.0,6.0,90,0.00,,---,0.00,VWS V14.01,2013-03-28 02:44:00,
2013-03-27 19:49:00,55.4,52.5,30.02,WNW,301,2.0,6.0,90,0.00,,---,0.00,VWS V14.01,2013-03-28 02:49:00,
2013-03-27 19:54:00,55.3,52.4,30.02,WNW,302,2.0,6.0,90,0.00,,---,0.00,VWS V14.01,2013-03-28 02:54:00,
2013-03-27 19:59:00,55.1,52.2,30.03,NW,314,2.0,6.0,90,0.00,,---,0.00,VWS V14.01,2013-03-28 02:59:00,
2013-03-27 20:04:00,55.0,52.1,30.03,NW,314,2.0,4.0,90,0.00,,---,0.00,VWS V14.01,2013-03-28 03:04:00,
2013-03-27 20:09:00,54.9,52.0,30.03,WNW,294,2.0,4.0,90,0.00,,---,0.00,VWS V14.01,2013-03-28 03:09:00,
2013-03-27 20:14:00,54.8,52.2,30.03,WNW,287,1.0,4.0,91,0.00,,---,0.00,VWS V14.01,2013-03-28 03:14:00,
2013-03-27 20:19:00,54.7,52.1,30.03,WNW,302,1.0,4.0,91,0.00,,---,0.00,VWS V14.01,2013-03-28 03:19:00,
2013-03-27 20:24:00,54.7,52.1,30.03,NW,307,2.0,4.0,91,0.00,,---,0.00,VWS V14.01,2013-03-28 03:24:00,
2013-03-27 20:29:00,54.7,52.1,30.03,NW,307,1.0,4.0,91,0.00,,---,0.00,VWS V14.01,2013-03-28 03:29:00,
2013-03-27 20:34:00,54.7,52.1,30.04,NW,304,2.0,4.0,91,0.00,,---,0.00,VWS V14.01,2013-03-28 03:34:00,
2013-03-27 20:39:00,54.7,52.1,30.04,WNW,293,1.0,4.0,91,0.00,,---,0.00,VWS V14.01,2013-03-28 03:39:00,
2013-03-27 20:44:00,54.6,52.0,30.05,WNW,293,0.0,4.0,91,0.00,,---,0.00,VWS V14.01,2013-03-28 03:44:00,
2013-03-27 20:49:00,54.5,51.9,30.05,WSW,240,0.0,4.0,91,0.00,,---,0.00,VWS V14.01,2013-03-28 03:49:00,
2013-03-27 20:54:00,54.4,51.8,30.05,WNW,291,1.0,4.0,91,0.00,,---,0.00,VWS V14.01,2013-03-28 03:54:00,
2013-03-27 20:59:00,54.3,51.7,30.05,WNW,293,0.0,4.0,91,0.00,,---,0.00,VWS V14.01,2013-03-28 03:59:00,
2013-03-27 21:00:00,54.4,51.8,30.05,WNW,293,1.0,4.0,91,0.00,,---,0.00,VWS V14.01,2013-03-28 04:00:00,
2013-03-27 21:05:00,54.3,51.7,30.05,WNW,294,0.0,1.0,91,0.00,,---,0.00,VWS V14.01,2013-03-28 04:05:00,
2013-03-27 21:10:00,54.3,52.0,30.05,WNW,293,0.0,1.0,92,0.00,,---,0.00,VWS V14.01,2013-03-28 04:10:00,
2013-03-27 21:15:00,54.2,51.9,30.06,WNW,291,0.0,1.0,92,0.00,,---,0.00,VWS V14.01,2013-03-28 04:15:00,
2013-03-27 21:20:00,53.9,51.3,30.06,WNW,291,0.0,1.0,91,0.00,,---,0.00,VWS V14.01,2013-03-28 04:20:00,
2013-03-27 21:25:00,53.6,51.0,30.06,WNW,290,0.0,1.0,91,0.00,,---,0.00,VWS V14.01,2013-03-28 04:25:00,
2013-03-27 21:30:00,53.4,51.1,30.06,WNW,290,0.0,1.0,92,0.00,,---,0.00,VWS V14.01,2013-03-28 04:30:00,
2013-03-27 21:35:00,53.4,51.1,30.06,WNW,290,0.0,1.0,92,0.00,,---,0.00,VWS V14.01,2013-03-28 04:35:00,
2013-03-27 21:40:00,53.3,51.0,30.06,WNW,291,0.0,1.0,92,0.00,,---,0.00,VWS V14.01,2013-03-28 04:40:00,
2013-03-27 21:45:00,53.0,50.5,30.07,WNW,290,0.0,1.0,91,0.00,,---,0.00,VWS V14.01,2013-03-28 04:45:00,
2013-03-27 21:50:00,52.8,50.5,30.07,WNW,291,0.0,1.0,92,0.00,,---,0.00,VWS V14.01,2013-03-28 04:50:00,
2013-03-27 21:55:00,52.5,50.2,30.07,WNW,290,0.0,1.0,92,0.00,,---,0.00,VWS V14.01,2013-03-28 04:55:00,
2013-03-27 22:00:00,52.6,50.6,30.07,WNW,291,0.0,1.0,93,0.00,,---,0.00,VWS V14.01,2013-03-28 05:00:00,
2013-03-27 22:05:00,52.8,50.8,30.07,WNW,291,0.0,0.0,93,0.00,,---,0.00,VWS V14.01,2013-03-28 05:05:00,
2013-03-27 22:10:00,52.8,50.8,30.07,WNW,291,0.0,0.0,93,0.00,,---,0.00,VWS V14.01,2013-03-28 05:10:00,
2013-03-27 22:15:00,52.5,50.2,30.07,WNW,290,0.0,0.0,92,0.00,,---,0.00,VWS V14.01,2013-03-28 05:15:00,
2013-03-27 22:20:00,52.3,50.0,30.07,WNW,291,0.0,0.0,92,0.00,,---,0.00,VWS V14.01,2013-03-28 05:20:00,
2013-03-27 22:25:00,52.3,50.6,30.06,WNW,291,0.0,0.0,94,0.00,,---,0.00,VWS V14.01,2013-03-28 05:25:00,
2013-03-27 22:30:00,52.5,50.8,30.07,WNW,291,0.0,0.0,94,0.00,,---,0.00,VWS V14.01,2013-03-28 05:30:00,
2013-03-27 22:35:00,52.2,50.2,30.07,WNW,291,0.0,0.0,93,0.00,,---,0.00,VWS V14.01,2013-03-28 05:35:00,
2013-03-27 22:40:00,52.3,50.6,30.07,WNW,291,0.0,1.0,94,0.00,,---,0.00,VWS V14.01,2013-03-28 05:40:00,
2013-03-27 22:45:00,52.3,50.6,30.07,WNW,291,0.0,1.0,94,0.00,,---,0.00,VWS V14.01,2013-03-28 05:45:00,
2013-03-27 22:50:00,52.1,50.1,30.07,WNW,291,0.0,1.0,93,0.00,,---,0.00,VWS V14.01,2013-03-28 05:50:00,
2013-03-27 22:55:00,52.0,50.3,30.07,WNW,290,0.0,1.0,94,0.00,,---,0.00,VWS V14.01,2013-03-28 05:55:00,
2013-03-27 23:00:00,51.8,49.8,30.07,WNW,291,0.0,1.0,93,0.00,,---,0.00,VWS V14.01,2013-03-28 06:00:00,
2013-03-27 23:05:00,51.9,50.2,30.07,WNW,290,0.0,1.0,94,0.00,,---,0.00,VWS V14.01,2013-03-28 06:05:00,
2013-03-27 23:10:00,51.9,50.2,30.07,WNW,291,1.0,1.0,94,0.00,,---,0.00,VWS V14.01,2013-03-28 06:10:00,
2013-03-27 23:15:00,52.2,50.8,30.07,WNW,291,0.0,1.0,95,0.00,,---,0.00,VWS V14.01,2013-03-28 06:15:00,
2013-03-27 23:20:00,52.4,51.0,30.07,WNW,290,0.0,1.0,95,0.00,,---,0.00,VWS V14.01,2013-03-28 06:20:00,
2013-03-27 23:25:00,52.7,51.3,30.07,WSW,240,1.0,1.0,95,0.00,,---,0.00,VWS V14.01,2013-03-28 06:25:00,
2013-03-27 23:30:00,53.0,51.6,30.07,WSW,243,1.0,2.0,95,0.00,,---,0.00,VWS V14.01,2013-03-28 06:30:00,
2013-03-27 23:35:00,53.1,51.4,30.07,WSW,249,1.0,2.0,94,0.00,,---,0.00,VWS V14.01,2013-03-28 06:35:00,
2013-03-27 23:40:00,53.1,51.1,30.07,WSW,249,0.0,2.0,93,0.00,,---,0.00,VWS V14.01,2013-03-28 06:40:00,
2013-03-27 23:45:00,52.7,50.5,30.07,WSW,249,0.0,2.0,92,0.00,,---,0.00,VWS V14.01,2013-03-28 06:45:00,
2013-03-27 23:50:00,53.1,51.7,30.07,WSW,255,0.0,3.0,95,0.00,,---,0.00,VWS V14.01,2013-03-28 06:50:00,
2013-03-27 23:55:00,53.3,51.3,30.07,West,277,0.0,3.0,93,0.00,,---,0.00,VWS V14.01,2013-03-28 06:55:00,